EW1090 Weather Reports


Display with metric or nautical units.
time (UTC)temp
F
wind
direction
speed
MPH
gust
MPH
rain 1hr
in
rain 24hr
in
rain mn
in
humidity
%
barometer
mb
20260504190829 79 281 1.0 14.0 0.00 0.00 0.00 38 1016.2
20260504185825 80 263 4.0 10.0 0.00 0.00 0.00 39 1016.4
20260504185321 79 232 1.0 7.0 0.00 0.00 0.00 40 1016.4
20260504184817 79 116 2.0 7.0 0.00 0.00 0.00 38 1016.4
20260504184313 78 351 2.0 9.0 0.00 0.00 0.00 40 1016.6
20260504183830 78 287 1.0 10.0 0.00 0.00 0.00 40 1016.7
20260504183326 78 275 3.0 13.0 0.00 0.00 0.00 38 1016.7
20260504182824 78 239 3.0 13.0 0.00 0.00 0.00 40 1016.7
20260504182320 79 227 4.0 10.0 0.00 0.00 0.00 39 1016.7
20260504181837 79 202 1.0 7.0 0.00 0.00 0.00 40 1016.7
20260504181353 79 184 1.0 7.0 0.00 0.00 0.00 41 1016.7
20260504180848 79 290 3.0 7.0 0.00 0.00 0.00 38 1016.6
20260504180343 79 24 0.0 2.0 0.00 0.00 0.00 39 1016.7
20260504175818 79 261 0.0 2.0 0.00 0.00 0.00 37 1016.7
20260504175314 79 98 0.0 0.0 0.00 0.00 0.00 39 1016.9
20260504174830 78 161 0.0 7.0 0.00 0.00 0.00 41 1016.9
20260504174326 78 269 0.0 9.0 0.00 0.00 0.00 39 1017.0
20260504173822 79 169 2.0 7.0 0.00 0.00 0.00 39 1017.0
20260504173317 79 212 2.0 7.0 0.00 0.00 0.00 38 1017.0
20260504172814 79 194 2.0 6.0 0.00 0.00 0.00 40 1017.0
20260504172312 78 49 0.0 1.0 0.00 0.00 0.00 39 1016.8
20260504171828 78 230 0.0 4.0 0.00 0.00 0.00 37 1016.8
20260504171326 78 250 2.0 7.0 0.00 0.00 0.00 38 1017.0
20260504170821 78 197 2.0 7.0 0.00 0.00 0.00 39 1016.9
20260504170315 78 197 2.0 6.0 0.00 0.00 0.00 37 1016.8
20260504160318 77 132 0.0 0.0 0.00 0.01 0.00 40 1017.6
20260504150827 76 64 0.0 4.0 0.00 0.02 0.00 43 1017.7
20260504150324 76 78 1.0 4.0 0.00 0.02 0.00 43 1017.7
20260504141330 73 287 0.0 2.0 0.00 0.03 0.00 48 1017.7
20260504140843 73 263 0.0 2.0 0.00 0.03 0.00 50 1017.9
20260504140318 73 267 0.0 0.0 0.00 0.03 0.00 52 1017.8
20260504130353 68 126 0.0 0.0 0.00 0.04 0.00 59 1017.9
20260504110323 58 126 0.0 0.0 0.00 0.05 0.00 74 1017.0
20260504100350 61 126 0.0 0.0 0.00 0.06 0.00 69 1017.2